Date,TemperatureHighF,TemperatureAvgF,TemperatureLowF,DewpointHighF,DewpointAvgF,DewpointLowF,HumidityHigh,HumidityAvg,HumidityLow,PressureMaxIn,PressureMinIn,WindSpeedMaxMPH,WindSpeedAvgMPH,GustSpeedMaxMPH,PrecipitationSumIn
2013-3-1,39,34,31,33,30,18,99,85,44,29.65,29.51,7,3,13,0.00
2013-3-2,45,36,31,33,30,28,100,80,53,29.64,29.57,7,2,9,0.00
2013-3-3,39,35,31,36,32,26,100,89,74,29.61,29.53,6,2,13,0.13
2013-3-4,36,32,29,27,25,13,79,72,50,29.68,29.52,9,5,21,0.00
2013-3-5,43,36,30,34,30,23,94,78,63,30.05,29.68,7,3,13,0.00
2013-3-6,37,35,31,36,33,23,100,94,71,30.14,30.04,12,8,23,0.11
2013-3-7,33,32,29,32,29,26,99,89,77,30.11,29.99,11,7,22,0.02
2013-3-8,43,34,27,30,26,21,100,75,44,30.13,29.93,11,7,19,0.12
2013-3-9,41,35,27,31,26,21,100,69,52,30.33,30.12,9,4,16,0.00
2013-3-10,40,32,24,33,29,24,100,89,70,30.39,30.28,7,2,12,0.00
2013-3-11,42,38,33,39,36,32,97,91,79,30.27,30.13,5,4,10,0.00
2013-3-12,48,41,38,48,41,38,100,100,97,30.13,29.71,8,5,17,0.11
2013-3-13,51,43,34,45,36,24,100,80,49,29.74,29.66,6,3,13,0.00
2013-3-14,38,31,23,27,20,-2,82,65,32,29.76,29.64,10,4,22,0.00
2013-3-15,41,27,19,31,12,6,100,57,34,29.80,29.60,8,5,18,0.00
2013-3-16,35,31,27,28,20,14,92,66,43,29.84,29.65,5,3,11,0.01
2013-3-17,37,29,23,21,10,2,81,46,33,30.28,29.86,8,4,16,0.00
2013-3-18,34,27,17,26,16,3,75,62,40,30.42,30.24,6,3,12,0.00
2013-3-19,33,31,26,33,30,26,100,97,88,30.21,29.64,12,6,21,0.00
2013-3-20,37,31,24,30,25,24,100,79,63,29.75,29.64,7,4,14,0.20
2013-3-21,37,30,25,29,24,22,96,79,58,29.75,29.59,5,2,8,0.12
2013-3-22,40,34,28,30,24,20,95,66,46,29.67,29.56,6,2,12,0.03
2013-3-23,41,33,27,25,22,20,79,66,44,29.69,29.57,10,5,23,0.00
2013-3-24,46,37,32,33,27,24,89,67,46,29.77,29.69,6,4,15,0.00
2013-3-25,39,34,0,34,31,27,95,84,77,29.74,29.54,9,5,16,0.00
2013-3-26,50,40,34,32,26,23,88,59,34,29.73,29.53,6,4,10,0.00
2013-3-27,53,42,32,36,29,24,93,63,37,29.84,29.70,5,3,10,0.00
2013-3-28,46,39,35,38,36,31,100,88,55,29.96,29.84,4,3,7,0.02
2013-3-29,56,43,35,38,34,30,93,75,39,29.99,29.93,6,3,13,0.00
2013-3-30,52,47,35,48,37,32,92,69,47,30.06,29.98,7,4,13,0.00
2013-3-31,49,40,30,40,34,26,95,79,44,30.09,29.80,8,4,15,0.00